KI6PPU Weather Reports


Display with metric or nautical units.
time (UTC)temp
F
wind
direction
speed
MPH
gust
MPH
rain 1hr
in
rain 24hr
in
rain mn
in
humidity
%
barometer
mb
20220525153749 78 325 0.0 1.0 0.00 0.06 0.06 50 1012.2
20220525153248 77 331 0.0 1.0 0.00 0.06 0.06 53 1012.3
20220525152746 76 19 2.0 2.0 0.00 0.06 0.06 49 1012.1
20220525152244 75 8 0.0 2.0 0.00 0.06 0.06 50 1012.2
20220525151743 74 339 0.0 2.0 0.00 0.06 0.06 52 1012.2
20220525151241 73 90 0.0 1.0 0.00 0.06 0.06 53 1012.2
20220525150740 72 0 0.0 1.0 0.00 0.06 0.06 54 1012.1
20220525150239 71 0 0.0 2.0 0.00 0.06 0.06 57 1012.0
20220525145738 69 45 0.0 2.0 0.00 0.06 0.06 58 1012.0
20220525145237 68 270 0.0 1.0 0.00 0.06 0.06 67 1012.0
20220525144735 67 297 0.0 2.0 0.00 0.06 0.06 64 1012.0
20220525144231 67 319 2.0 3.0 0.00 0.06 0.06 63 1011.8
20220525143730 67 345 0.0 1.0 0.00 0.06 0.06 60 1012.0
20220525143226 65 56 2.0 3.0 0.00 0.06 0.06 63 1011.8
20220525142724 64 29 0.0 2.0 0.00 0.06 0.06 63 1011.8
20220525142224 64 81 0.0 0.0 0.00 0.06 0.06 64 1011.9
20220525141720 63 90 0.0 2.0 0.00 0.06 0.06 66 1011.9
20220525141220 62 53 0.0 2.0 0.00 0.06 0.06 66 1011.8
20220525140720 61 54 0.0 2.0 0.00 0.06 0.06 69 1011.9
20220525140219 60 38 2.0 2.0 0.00 0.06 0.06 68 1011.8
20220525135718 59 16 2.0 2.0 0.00 0.06 0.06 71 1011.9
20220525135217 58 32 0.0 0.0 0.00 0.06 0.06 72 1011.8
20220525134714 57 32 0.0 0.0 0.00 0.06 0.06 74 1011.7
20220525134213 56 32 0.0 0.0 0.00 0.06 0.06 76 1011.6
20220525133712 54 0 0.0 1.0 0.00 0.06 0.06 83 1011.8
20220525133209 53 0 0.0 0.0 0.00 0.06 0.06 86 1011.7
20220525132708 52 30 0.0 2.0 0.00 0.06 0.06 84 1011.8
20220525132207 51 259 0.0 0.0 0.00 0.06 0.06 87 1011.6
20220525131705 51 259 0.0 2.0 0.00 0.06 0.06 86 1011.6
20220525131204 51 15 0.0 0.0 0.00 0.06 0.06 87 1011.5
20220525130703 51 352 0.0 1.0 0.00 0.06 0.06 86 1011.5
20220525130201 51 20 0.0 0.0 0.00 0.06 0.06 85 1011.7
20220525125659 52 20 0.0 0.0 0.00 0.06 0.06 84 1011.5
20220525125158 52 20 0.0 1.0 0.04 0.06 0.06 83 1011.3
20220525124655 52 49 0.0 0.0 0.14 0.06 0.06 84 1011.3
20220525124153 52 49 0.0 0.0 0.14 0.05 0.05 84 1011.5
20220525123653 53 49 0.0 0.0 0.04 0.03 0.03 83 1011.2
20220525123152 53 39 2.0 3.0 0.00 0.03 0.03 83 1011.3
20220525122651 53 99 0.0 2.0 0.00 0.03 0.03 83 1011.2
20220525122150 53 212 0.0 2.0 0.00 0.03 0.03 84 1011.1
20220525121649 52 301 2.0 2.0 0.00 0.03 0.03 86 1011.2
20220525121148 52 180 0.0 0.0 0.02 0.03 0.03 85 1011.1
20220525120647 52 311 2.0 2.0 0.09 0.03 0.03 88 1011.2
20220525120147 52 23 0.0 0.0 0.16 0.02 0.02 85 1011.0
20220525115645 53 186 0.0 0.0 0.09 0.01 0.01 87 1011.0
20220525115144 54 172 0.0 1.0 0.00 0.00 0.00 80 1010.9
20220525114644 54 90 0.0 0.0 0.00 0.00 0.00 79 1010.7
20220525114143 55 63 2.0 3.0 0.00 0.00 0.00 76 1010.8
20220525113642 53 180 0.0 1.0 0.00 0.00 0.00 82 1010.8
20220525113140 53 103 1.0 1.0 0.00 0.00 0.00 81 1010.7
20220525112638 54 209 0.0 1.0 0.00 0.00 0.00 81 1010.6
20220525112136 54 11 1.0 2.0 0.00 0.00 0.00 80 1010.7
20220525111634 54 60 0.0 0.0 0.00 0.00 0.00 80 1010.6
20220525111133 54 81 0.0 2.0 0.00 0.00 0.00 79 1010.6
20220525110632 54 84 1.0 3.0 0.00 0.00 0.00 79 1010.6
20220525110132 54 98 0.0 2.0 0.00 0.00 0.00 80 1010.6
20220525105630 54 90 2.0 2.0 0.00 0.00 0.00 80 1010.7
20220525105129 54 75 0.0 2.0 0.00 0.00 0.00 80 1010.7
20220525104627 54 90 0.0 3.0 0.00 0.00 0.00 79 1010.6
20220525104127 55 51 2.0 2.0 0.00 0.00 0.00 78 1010.5
20220525103625 55 82 0.0 3.0 0.00 0.00 0.00 78 1010.5
20220525103124 54 188 0.0 0.0 0.00 0.00 0.00 79 1010.4
20220525102622 54 180 0.0 1.0 0.00 0.00 0.00 79 1010.6
20220525102120 54 66 0.0 2.0 0.00 0.00 0.00 79 1010.6
20220525101620 54 74 0.0 1.0 0.00 0.00 0.00 78 1010.8
20220525101120 55 90 0.0 2.0 0.00 0.00 0.00 77 1010.5
20220525100619 55 172 0.0 2.0 0.00 0.00 0.00 76 1010.5
20220525100117 55 54 0.0 2.0 0.00 0.00 0.00 76 1010.7
20220525095617 55 90 0.0 2.0 0.00 0.00 0.00 76 1010.6
20220525095116 56 200 0.0 2.0 0.00 0.00 0.00 75 1010.4
20220525094615 56 180 0.0 0.0 0.00 0.00 0.00 75 1010.4
20220525094114 56 65 2.0 2.0 0.00 0.00 0.00 74 1010.6
20220525093613 55 68 2.0 2.0 0.00 0.00 0.00 75 1010.7
20220525093112 55 98 0.0 1.0 0.00 0.00 0.00 76 1010.5
20220525092611 56 106 0.0 2.0 0.00 0.00 0.00 74 1010.4
20220525092111 56 96 0.0 2.0 0.00 0.00 0.00 74 1010.5
20220525091607 57 106 1.0 1.0 0.00 0.00 0.00 72 1010.5
20220525091105 56 54 1.0 1.0 0.00 0.00 0.00 73 1010.6
20220525090604 57 80 2.0 2.0 0.00 0.00 0.00 72 1010.6
20220525090104 57 191 1.0 3.0 0.00 0.00 0.00 72 1010.5
20220525085604 57 81 0.0 2.0 0.00 0.00 0.00 71 1010.4
20220525085102 58 106 1.0 2.0 0.00 0.00 0.00 69 1010.7
20220525084601 58 106 1.0 2.0 0.00 0.00 0.00 67 1010.5
20220525084101 58 192 0.0 3.0 0.00 0.00 0.00 70 1010.5
20220525083600 57 140 0.0 2.0 0.00 0.00 0.00 71 1010.7
20220525083058 58 96 2.0 2.0 0.00 0.00 0.00 70 1010.6
20220525082556 58 172 0.0 2.0 0.00 0.00 0.00 70 1010.8
20220525082056 58 69 3.0 3.0 0.00 0.00 0.00 69 1010.8
20220525081555 58 111 0.0 1.0 0.00 0.00 0.00 69 1010.8
20220525081056 58 180 1.0 1.0 0.00 0.00 0.00 69 1010.9
20220525080555 58 77 2.0 2.0 0.00 0.00 0.00 69 1010.8
20220525080054 59 114 0.0 1.0 0.00 0.00 0.00 68 1011.0
20220525075553 60 70 2.0 3.0 0.00 0.00 0.00 65 1010.9
20220525075052 60 74 2.0 3.0 0.00 0.00 0.00 61 1010.8
20220525074550 60 81 0.0 1.0 0.00 0.00 0.00 63 1010.7
20220525074049 61 59 2.0 3.0 0.00 0.00 0.00 60 1010.9
20220525073548 59 165 0.0 2.0 0.00 0.00 0.00 66 1010.9
20220525073046 60 95 2.0 3.0 0.00 0.00 0.00 65 1011.0
20220525072545 60 67 2.0 3.0 0.00 0.00 0.00 62 1011.0
20220525072041 61 105 0.0 2.0 0.00 0.00 0.00 61 1010.9
20220525071540 60 146 2.0 2.0 0.00 0.00 0.00 61 1011.1
20220525071041 60 106 1.0 2.0 0.00 0.00 0.00 63 1011.0
20220525070538 62 85 2.0 3.0 0.00 0.00 0.00 61 1011.5
20220525070037 62 63 1.0 2.0 0.00 0.05 0.05 58 1011.2
20220525065535 63 86 3.0 3.0 0.00 0.05 0.05 56 1011.2
20220525065036 65 45 2.0 3.0 0.00 0.05 0.05 51 1011.0
20220525064534 64 42 3.0 3.0 0.00 0.05 0.05 53 1011.3
20220525064032 64 90 0.0 2.0 0.00 0.05 0.05 54 1011.2
20220525063532 65 48 2.0 3.0 0.00 0.05 0.05 51 1011.3
20220525063031 64 90 1.0 2.0 0.00 0.05 0.05 55 1011.3
20220525062531 63 74 0.0 2.0 0.00 0.05 0.05 55 1011.5
20220525062030 64 81 0.0 2.0 0.00 0.05 0.05 55 1011.5
20220525061529 63 96 0.0 2.0 0.00 0.05 0.05 55 1011.6
20220525061028 64 63 1.0 3.0 0.00 0.05 0.05 56 1011.7
20220525060528 65 81 0.0 3.0 0.00 0.05 0.05 55 1011.6
20220525060026 63 74 0.0 1.0 0.00 0.05 0.05 57 1011.6
20220525055526 64 90 0.0 2.0 0.00 0.05 0.05 56 1011.7
20220525055024 65 66 0.0 3.0 0.00 0.05 0.05 52 1011.7
20220525054523 66 52 2.0 3.0 0.00 0.05 0.05 50 1011.7
20220525054022 66 63 4.0 4.0 0.00 0.05 0.05 48 1011.6
20220525053521 64 52 0.0 3.0 0.00 0.05 0.05 54 1011.5
20220525053019 66 63 3.0 3.0 0.00 0.05 0.05 51 1011.7
20220525052517 65 59 2.0 2.0 0.00 0.05 0.05 52 1011.7
20220525052016 65 143 0.0 2.0 0.00 0.05 0.05 52 1011.6
20220525051514 66 106 0.0 1.0 0.00 0.05 0.05 51 1011.6
20220525051012 66 84 2.0 2.0 0.00 0.05 0.05 50 1011.6
20220525050511 66 165 0.0 1.0 0.00 0.05 0.05 50 1011.5
20220525050012 67 97 0.0 1.0 0.00 0.05 0.05 50 1011.6
20220525045510 67 90 0.0 1.0 0.00 0.05 0.05 48 1011.3
20220525045010 68 63 1.0 3.0 0.00 0.05 0.05 47 1011.5
20220525044509 68 59 2.0 2.0 0.00 0.05 0.05 48 1011.5
20220525044008 70 83 1.0 2.0 0.00 0.05 0.05 45 1011.3
20220525043507 68 99 0.0 0.0 0.00 0.05 0.05 46 1011.1
20220525043005 69 99 0.0 0.0 0.00 0.05 0.05 46 1011.1
20220525042501 70 99 0.0 0.0 0.00 0.05 0.05 44 1011.2
20220525042000 70 99 0.0 0.0 0.00 0.05 0.05 45 1011.1
20220525041456 70 60 0.0 1.0 0.00 0.05 0.05 45 1011.1
20220525040954 70 229 0.0 0.0 0.00 0.05 0.05 43 1011.0
20220525040453 71 229 0.0 0.0 0.00 0.05 0.05 41 1010.7
20220525035951 71 229 0.0 0.0 0.00 0.05 0.05 43 1010.8
20220525035450 72 229 0.0 0.0 0.00 0.05 0.05 40 1010.7
20220525034948 74 229 0.0 0.0 0.00 0.05 0.05 36 1010.8
20220525034448 74 235 2.0 2.0 0.00 0.05 0.05 35 1010.5
20220525033945 74 236 2.0 4.0 0.00 0.05 0.05 36 1010.8
20220525033444 75 286 0.0 0.0 0.00 0.05 0.05 35 1010.6
20220525032942 77 270 0.0 2.0 0.00 0.05 0.05 35 1010.6
20220525032442 77 248 2.0 2.0 0.00 0.05 0.05 33 1010.6
20220525031941 77 246 0.0 2.0 0.00 0.05 0.05 33 1010.4
20220525031440 79 234 0.0 2.0 0.00 0.05 0.05 32 1010.5
20220525030938 80 270 0.0 2.0 0.00 0.05 0.05 31 1010.5
20220525030437 80 254 1.0 2.0 0.00 0.05 0.05 29 1010.6
20220525025936 81 225 2.0 2.0 0.00 0.05 0.05 31 1010.6
20220525025435 82 254 0.0 2.0 0.00 0.05 0.05 28 1010.6
20220525024934 82 262 0.0 2.0 0.00 0.05 0.05 27 1010.6
20220525024435 83 240 2.0 2.0 0.00 0.05 0.05 28 1010.4
20220525023934 83 241 2.0 3.0 0.00 0.05 0.05 28 1010.6
20220525023432 83 227 3.0 3.0 0.00 0.05 0.05 27 1010.5
20220525022930 83 237 0.0 3.0 0.00 0.05 0.05 27 1010.5
20220525022428 84 216 0.0 2.0 0.00 0.05 0.05 26 1010.5
20220525021927 84 221 2.0 2.0 0.00 0.05 0.05 29 1010.5
20220525021428 85 225 2.0 3.0 0.00 0.05 0.05 28 1010.6
20220525020926 85 213 0.0 2.0 0.00 0.05 0.05 25 1010.4
20220525020424 86 213 2.0 2.0 0.00 0.05 0.05 26 1010.6
20220525015923 87 261 0.0 2.0 0.00 0.05 0.05 24 1010.6
20220525015421 88 196 2.0 3.0 0.00 0.05 0.05 23 1010.6
20220525014920 88 285 1.0 3.0 0.00 0.05 0.05 23 1010.5
20220525014419 88 340 0.0 2.0 0.00 0.05 0.05 22 1010.6
20220525013919 89 323 2.0 3.0 0.00 0.05 0.05 21 1010.7
20220525013417 89 283 0.0 3.0 0.00 0.05 0.05 20 1010.5
20220525012916 89 198 0.0 3.0 0.00 0.05 0.05 21 1010.6
20220525012416 90 4 0.0 2.0 0.00 0.05 0.05 20 1010.6
20220525011914 90 331 3.0 3.0 0.00 0.05 0.05 18 1010.6
20220525011413 90 192 1.0 4.0 0.00 0.05 0.05 19 1010.4
20220525010911 91 292 6.0 6.0 0.00 0.05 0.05 17 1010.6
20220525010410 92 172 1.0 2.0 0.00 0.05 0.05 18 1010.6
20220525005909 93 209 0.0 3.0 0.00 0.05 0.05 18 1010.6
20220525005408 93 209 2.0 3.0 0.00 0.05 0.05 17 1010.6
20220525004906 93 200 3.0 3.0 0.00 0.05 0.05 16 1010.7
20220525004402 93 0 0.0 3.0 0.00 0.05 0.05 18 1010.7
20220525003901 93 166 0.0 5.0 0.00 0.05 0.05 17 1010.6
20220525003401 93 286 0.0 5.0 0.00 0.05 0.05 16 1010.7
20220525002859 93 330 2.0 4.0 0.00 0.05 0.05 15 1010.9
20220525002357 93 241 3.0 6.0 0.00 0.05 0.05 15 1010.8
20220525001855 93 237 2.0 3.0 0.00 0.05 0.05 17 1010.9
20220525001354 93 291 0.0 5.0 0.00 0.05 0.05 16 1010.8
20220525000853 93 331 1.0 5.0 0.00 0.05 0.05 16 1011.0
20220525000352 93 222 3.0 5.0 0.00 0.05 0.05 15 1010.7
20220524235850 94 249 1.0 5.0 0.00 0.05 0.05 16 1011.1
20220524235349 93 0 0.0 4.0 0.00 0.05 0.05 15 1011.0
20220524234849 93 254 2.0 4.0 0.00 0.05 0.05 17 1011.0
20220524234348 94 246 0.0 4.0 0.00 0.05 0.05 15 1011.1
20220524233848 93 203 0.0 5.0 0.00 0.05 0.05 17 1011.1
20220524233347 94 206 2.0 5.0 0.00 0.05 0.05 16 1010.9
20220524232846 93 209 2.0 5.0 0.00 0.05 0.05 16 1011.0
20220524232346 94 241 3.0 5.0 0.00 0.05 0.05 15 1011.1
20220524231844 94 259 0.0 4.0 0.00 0.05 0.05 17 1011.1
20220524231342 93 270 0.0 5.0 0.00 0.05 0.05 20 1011.1
20220524230840 94 346 4.0 5.0 0.00 0.05 0.05 20 1011.2
20220524230340 94 270 2.0 3.0 0.00 0.05 0.05 18 1011.1
20220524225840 94 292 0.0 3.0 0.00 0.05 0.05 17 1011.3
20220524225339 93 229 3.0 6.0 0.00 0.05 0.05 16 1011.3
20220524224837 93 323 2.0 3.0 0.00 0.05 0.05 18 1011.2
20220524224335 93 225 3.0 6.0 0.00 0.05 0.05 19 1011.3
20220524223834 93 192 0.0 4.0 0.00 0.05 0.05 19 1011.3
20220524223333 93 322 0.0 6.0 0.00 0.05 0.05 21 1011.5
20220524222832 92 246 1.0 5.0 0.00 0.05 0.05 23 1011.5
20220524222331 91 270 0.0 6.0 0.00 0.05 0.05 21 1011.5
20220524221831 92 355 2.0 5.0 0.00 0.05 0.05 20 1011.7
20220524221329 92 335 3.0 7.0 0.00 0.05 0.05 22 1011.8
20220524220828 92 221 3.0 5.0 0.00 0.05 0.05 24 1011.7
20220524220326 93 228 3.0 4.0 0.00 0.05 0.05 25 1011.8
20220524215827 92 195 2.0 6.0 0.00 0.05 0.05 24 1011.7
20220524215325 92 225 2.0 3.0 0.00 0.05 0.05 23 1012.0
20220524214823 91 262 1.0 6.0 0.00 0.05 0.05 26 1011.8
20220524214321 91 180 2.0 6.0 0.00 0.05 0.05 24 1011.9
20220524213819 91 205 3.0 5.0 0.00 0.05 0.05 23 1011.9
20220524213318 91 305 3.0 7.0 0.00 0.05 0.05 24 1012.0
20220524212818 91 162 2.0 5.0 0.00 0.05 0.05 24 1012.0
20220524212317 91 225 2.0 7.0 0.00 0.05 0.05 24 1011.8
20220524211816 91 180 0.0 7.0 0.00 0.05 0.05 23 1011.9
20220524211314 91 192 5.0 5.0 0.00 0.05 0.05 24 1012.0
20220524210813 90 317 5.0 10.0 0.00 0.05 0.05 23 1012.1
20220524210313 90 321 4.0 5.0 0.00 0.05 0.05 25 1012.0
20220524205812 90 206 4.0 6.0 0.00 0.05 0.05 23 1012.2
20220524205311 90 246 3.0 6.0 0.00 0.05 0.05 24 1012.0
20220524204809 90 281 5.0 6.0 0.00 0.05 0.05 23 1012.3
20220524204308 90 292 3.0 5.0 0.00 0.05 0.05 27 1012.1
20220524203805 90 344 5.0 8.0 0.00 0.05 0.05 25 1012.2
20220524203304 90 162 2.0 4.0 0.00 0.05 0.05 24 1012.4
20220524202803 90 255 1.0 6.0 0.00 0.05 0.05 28 1012.2
20220524202301 89 173 2.0 5.0 0.00 0.05 0.05 25 1012.4
20220524201759 89 187 3.0 5.0 0.00 0.05 0.05 25 1012.5
20220524201259 88 195 2.0 5.0 0.00 0.05 0.05 25 1012.4
20220524200759 89 219 3.0 4.0 0.00 0.05 0.05 29 1012.4
20220524200257 88 332 3.0 5.0 0.00 0.05 0.05 24 1012.4
20220524195757 89 26 2.0 7.0 0.00 0.05 0.05 24 1012.5
20220524195257 89 300 3.0 3.0 0.00 0.05 0.05 25 1012.5
20220524194755 88 195 1.0 3.0 0.00 0.05 0.05 27 1012.4
20220524194254 87 255 1.0 8.0 0.00 0.05 0.05 25 1012.6
20220524193752 88 328 2.0 5.0 0.00 0.05 0.05 26 1012.4
20220524193251 87 217 7.0 8.0 0.00 0.05 0.05 26 1012.3
20220524192749 87 209 4.0 5.0 0.00 0.05 0.05 28 1012.5
20220524192247 87 318 3.0 4.0 0.00 0.05 0.05 29 1012.6
20220524191747 88 287 0.0 4.0 0.00 0.05 0.05 28 1012.5
20220524191246 87 168 1.0 5.0 0.00 0.05 0.05 28 1012.8
20220524190745 87 180 0.0 4.0 0.00 0.05 0.05 30 1012.6
20220524190244 87 233 5.0 5.0 0.00 0.05 0.05 27 1012.8
20220524185742 87 270 4.0 4.0 0.00 0.05 0.05 34 1012.7
20220524185241 86 90 0.0 5.0 0.00 0.05 0.05 32 1012.7
20220524184740 86 300 5.0 8.0 0.00 0.05 0.05 30 1012.9
20220524184238 86 324 2.0 5.0 0.00 0.05 0.05 36 1012.9
20220524183735 85 280 5.0 8.0 0.00 0.05 0.05 29 1012.9
20220524183234 86 197 0.0 3.0 0.00 0.05 0.05 31 1012.9
20220524182730 86 214 3.0 4.0 0.00 0.05 0.05 30 1012.8
20220524182228 85 225 0.0 5.0 0.00 0.05 0.05 30 1012.9
20220524181727 86 267 3.0 5.0 0.00 0.05 0.05 30 1012.8
20220524181225 86 259 2.0 3.0 0.00 0.05 0.05 33 1013.0
20220524180723 86 304 4.0 5.0 0.00 0.05 0.05 29 1012.9
20220524180222 85 7 1.0 6.0 0.00 0.05 0.05 30 1012.8
20220524175721 86 312 2.0 4.0 0.00 0.05 0.05 27 1012.8
20220524175219 85 286 2.0 3.0 0.00 0.05 0.05 34 1012.8
20220524174717 85 315 0.0 3.0 0.00 0.05 0.05 34 1012.9
20220524174216 85 288 0.0 3.0 0.00 0.05 0.05 31 1012.8
20220524173715 85 199 4.0 4.0 0.00 0.05 0.05 30 1012.9
20220524173216 84 20 0.0 2.0 0.00 0.05 0.05 35 1012.8
20220524172714 83 135 3.0 5.0 0.00 0.05 0.05 31 1012.9
20220524172213 82 354 1.0 4.0 0.00 0.05 0.05 34 1012.8
20220524171711 83 262 0.0 4.0 0.00 0.05 0.05 40 1012.9
20220524171211 83 270 2.0 4.0 0.00 0.05 0.05 36 1013.1
20220524170709 83 312 0.0 4.0 0.00 0.05 0.05 34 1013.0
20220524170207 82 342 0.0 3.0 0.00 0.05 0.05 37 1012.9
20220524165706 81 335 3.0 5.0 0.00 0.05 0.05 36 1012.8
20220524165204 81 293 0.0 3.0 0.00 0.05 0.05 40 1012.8
20220524164703 80 52 2.0 5.0 0.00 0.05 0.05 36 1012.9
20220524164202 80 348 0.0 3.0 0.00 0.05 0.05 35 1012.9
20220524163700 79 307 2.0 6.0 0.00 0.05 0.05 37 1012.9
20220524163200 79 324 2.0 4.0 0.00 0.05 0.05 42 1013.0
20220524162658 79 270 0.0 3.0 0.00 0.05 0.05 40 1012.9
20220524162156 78 278 2.0 2.0 0.00 0.05 0.05 45 1012.9
20220524161655 77 337 0.0 3.0 0.00 0.05 0.05 39 1012.9
20220524161153 77 345 2.0 3.0 0.00 0.05 0.05 38 1013.0
20220524160653 76 344 0.0 2.0 0.00 0.05 0.05 39 1013.0
20220524160153 75 270 2.0 3.0 0.00 0.05 0.05 40 1012.8
20220524155651 75 289 1.0 2.0 0.00 0.05 0.05 47 1012.9
20220524155150 75 327 2.0 2.0 0.00 0.05 0.05 47 1012.8
20220524154649 73 286 1.0 2.0 0.00 0.05 0.05 47 1012.9
20220524154149 72 276 1.0 2.0 0.00 0.05 0.05 47 1012.6